Tracking 35035 objects as of 16-Aug-2026
HD Live streaming from Space Station
objects crossing your sky now

STARLINK-32670

Track STARLINK-32670 now!
10-day predictions
STARLINK-32670 is classified as:


NORAD ID: 62210
Int'l Code: 2024-229U
Launch date: December 4, 2024
Source: United States (US)
Launch site: AIR FORCE EASTERN TEST RANGE (AFETR)
Your satellite tracking list
Your tracking list is empty




NASA's NSSDC Master Catalog

Two Line Element Set (TLE):
1 62210U 24229U   26227.97514733  .00006864  00000-0  25867-3 0  9993
2 62210  42.9997  91.0133 0001131 259.8896 100.1828 15.27583877 94920
Source of the keplerian elements: AFSPC